Wind_Speed
12 11 10 10 9 8 7 7 6 6 6 5 5 5 4 4 4 4 4 4 4 3 3 3 2 2 2 2 2 2 2 3 3 2 2 2 2 3 2 2 3 4
13 12 11 10 9 9 8 7 7 6 6 6 5 5 4 5 5 5 5 5 4 4 4 3 3 3 3 3 3 3 3 4 4 3 2 2 3 3 3 3 3 3
14 13 12 12 11 11 10 9 7 7 7 7 6 6 5 5 5 6 6 6 5 4 4 4 4 4 4 4 3 3 3 4 4 3 3 3 3 3 3 3 3 3
15 14 13 12 12 11 11 10 8 8 8 7 7 7 6 5 5 5 6 6 5 5 5 4 4 4 4 4 4 4 4 4 4 3 3 4 3 4 4 4 4 4
15 14 13 12 11 11 10 10 9 8 8 8 7 7 6 5 5 5 6 6 6 6 6 5 5 5 5 5 5 5 4 4 4 4 4 4 4 4 4 3 3 4
14 14 13 12 11 11 11 10 9 9 8 8 8 7 6 7 7 6 6 6 6 6 6 6 6 5 5 5 5 5 5 4 3 3 4 5 4 5 4 3 4 4
13 13 13 12 12 12 12 11 10 9 9 8 7 7 7 7 7 7 7 7 7 6 6 5 5 5 5 5 5 5 5 5 4 4 5 5 5 5 5 4 4 4
13 13 12 12 12 13 13 12 11 10 9 9 8 8 8 8 8 8 7 7 7 7 6 6 6 6 6 6 5 5 6 6 6 6 6 5 5 5 5 5 5 5
13 12 12 12 12 13 13 13 12 12 11 10 10 10 9 9 9 8 7 7 7 7 6 7 6 7 7 6 6 6 6 6 6 5 6 6 6 5 5 5 5 5
11 11 11 12 12 12 13 13 13 12 12 11 11 11 10 10 10 9 8 8 8 7 8 8 8 7 7 7 7 6 6 7 6 6 7 6 6 6 6 6 6 6
10 10 10 11 11 11 11 12 12 12 12 11 11 12 11 11 10 10 9 9 9 8 8 9 9 8 8 8 8 7 7 7 7 7 7 7 7 7 7 7 7 7
9 10 10 11 11 11 11 12 12 12 12 12 11 12 12 12 11 11 10 10 10 10 9 9 9 9 8 8 9 8 8 8 8 8 8 8 8 8 8 8 7 7
11 9 9 10 10 11 11 12 12 13 13 12 11 11 12 13 12 12 11 11 11 11 11 10 10 10 9 9 10 9 9 9 9 9 9 9 9 8 8 9 8 8
15 13 11 11 12 12 12 11 11 12 12 11 11 11 12 13 13 13 12 12 12 11 11 11 10 11 11 11 11 11 10 10 10 10 10 10 9 9 9 9 9 9
19 18 16 16 16 15 14 13 12 11 11 11 11 11 11 12 13 13 12 12 11 11 11 11 11 11 12 12 11 11 10 11 11 11 11 10 10 10 9 9 9 10
21 20 20 20 20 19 18 17 13 10 10 11 11 11 12 12 11 12 12 11 11 11 11 12 12 11 12 13 12 11 10 10 10 10 10 10 10 10 10 10 10 10
21 21 20 19 20 20 20 19 17 14 13 11 10 11 12 12 12 12 12 12 12 12 12 12 11 10 12 13 13 13 12 11 10 11 11 11 11 11 10 10 10 10
19 20 18 17 17 16 17 17 17 17 16 12 10 11 12 12 12 12 12 12 12 12 13 12 9 10 12 14 14 14 13 13 12 12 12 12 11 11 10 10 10 9
16 17 18 17 16 15 14 14 14 16 16 13 11 12 13 12 11 11 10 11 11 11 11 9 7 10 13 13 13 13 13 13 13 13 13 13 12 11 11 10 9 9
14 14 14 15 14 14 14 14 15 15 15 15 13 13 13 12 11 10 10 10 10 9 9 7 6 9 10 10 11 11 11 12 12 12 13 13 13 13 12 11 9 8
8 9 9 8 9 11 14 15 15 14 15 15 14 13 13 12 10 9 9 9 9 9 9 8 7 8 8 8 9 9 9 9 9 9 10 11 11 11 10 10 9 8
9 9 8 6 5 6 10 12 12 11 12 14 14 13 11 9 9 8 8 8 9 9 8 8 7 7 7 7 8 7 7 6 5 6 7 7 7 7 7 6 6 5
12 10 8 7 8 8 8 9 8 8 9 10 12 12 9 7 8 8 7 6 6 6 6 6 6 6 6 6 7 6 6 5 4 6 6 6 6 5 4 4 4 4
11 9 9 8 8 7 7 7 5 7 9 8 8 7 6 6 7 7 6 5 5 4 5 5 3 3 4 5 6 7 7 6 5 7 7 6 6 5 5 5 5 5
11 10 9 9 9 9 9 8 6 6 7 7 6 6 5 5 6 6 6 6 5 5 5 4 3 1 2 3 4 5 7 7 7 7 9 9 7 7 7 6 5 4
12 10 9 9 10 9 8 8 7 6 7 8 7 6 7 8 8 7 7 6 6 6 6 5 4 3 2 1 1 2 4 6 6 7 8 8 7 7 7 7 6 4
Wind_Direction
203 202 203 205 207 207 202 199 198 197 199 198 194 186 179 182 186 189 191 195 207 214 217 227 230 223 231 239 244 256 267 268 267 248 240 260 269 270 270 267 278 292
206 205 205 206 208 210 209 209 208 203 199 204 205 192 189 196 199 203 203 201 205 205 203 215 221 219 227 229 232 248 258 264 268 257 241 254 265 263 263 266 268 274
209 208 208 210 213 214 215 215 215 212 205 201 203 203 205 206 201 204 208 205 204 198 195 206 211 214 223 223 225 240 250 258 266 268 266 262 263 268 263 265 270 266
213 214 214 217 218 217 218 217 215 214 210 203 202 207 211 212 204 201 204 205 205 200 195 203 208 208 212 215 223 236 244 252 257 262 272 269 260 265 267 266 274 277
214 217 219 222 222 218 216 217 217 215 211 210 209 208 210 215 217 210 206 206 206 204 201 201 203 204 205 208 220 234 243 242 234 233 254 266 262 259 261 264 270 277
211 215 219 222 223 219 216 218 220 218 216 214 213 213 213 215 218 216 212 212 212 209 205 200 201 207 206 208 219 232 246 248 230 222 241 253 257 258 262 268 269 273
211 213 216 220 221 219 220 222 223 223 223 220 216 216 219 218 217 216 215 217 220 219 213 204 201 207 211 214 224 231 240 247 237 232 244 246 248 254 262 266 266 268
214 214 214 218 220 218 219 221 222 222 224 225 224 222 220 219 217 216 215 216 221 221 220 216 206 209 216 219 227 234 240 244 234 226 237 244 247 249 253 257 260 265
215 215 215 217 219 219 218 218 220 220 219 223 229 228 221 216 214 214 210 212 220 219 216 220 217 214 218 219 223 231 239 247 243 232 237 244 246 248 248 249 252 258
214 216 219 221 221 221 221 221 221 220 219 222 228 230 224 214 210 211 207 207 218 220 215 218 221 221 224 223 223 228 234 242 245 241 244 246 248 252 252 251 253 257
208 213 220 225 226 227 228 228 228 227 226 226 229 232 229 217 209 209 208 210 218 221 218 217 218 223 229 230 228 228 230 235 237 237 240 243 246 248 249 251 253 255
206 214 219 221 225 230 230 231 232 231 230 229 229 232 231 224 217 214 213 215 219 223 223 220 220 223 228 233 236 235 233 235 236 234 235 238 240 241 240 241 245 250
204 208 214 214 217 221 223 226 229 229 231 232 229 228 228 226 224 222 221 220 222 225 227 225 224 225 225 229 236 239 238 238 239 237 235 235 236 236 237 237 238 243
214 215 214 210 209 212 216 219 222 224 227 229 230 228 227 227 227 226 225 225 225 225 226 225 225 226 226 226 231 237 240 240 239 240 240 239 239 239 239 240 241 242
228 229 226 219 216 218 222 223 221 222 223 222 224 228 230 230 230 229 227 226 225 223 222 224 225 227 225 221 223 230 238 242 242 242 243 243 244 244 244 244 244 245
231 230 227 225 225 226 230 230 227 224 223 220 220 226 231 230 229 229 227 224 223 220 220 223 227 230 225 220 222 228 236 245 248 249 249 249 249 249 249 247 245 247
223 222 223 227 227 227 232 234 233 228 224 220 220 223 227 227 227 228 229 229 226 222 220 223 227 228 224 225 231 236 239 245 249 251 251 250 250 250 250 251 250 249
216 216 221 227 228 226 228 231 233 232 226 220 217 221 224 226 227 228 230 232 231 227 226 226 225 224 224 231 242 248 246 245 247 249 248 246 247 248 249 252 254 253
213 214 219 224 225 224 224 225 227 227 225 221 216 219 223 225 225 224 225 229 231 232 230 225 222 226 229 238 249 253 252 248 247 247 247 246 244 244 246 250 252 255
211 215 219 222 224 223 223 225 224 220 220 222 218 213 214 217 217 216 218 221 221 226 225 216 217 230 235 240 246 247 249 249 247 245 246 247 246 244 245 246 244 246
187 195 200 207 218 220 219 220 216 208 206 209 210 207 205 204 202 204 211 214 215 219 216 204 212 231 235 235 238 240 245 248 246 245 248 248 246 242 243 246 245 245
114 130 144 145 151 181 195 196 196 193 191 194 197 197 194 193 195 199 206 212 217 221 208 188 198 220 224 226 233 234 236 238 237 241 246 244 240 234 236 243 243 243
88 96 103 108 115 122 136 151 164 170 171 178 184 184 182 181 184 189 197 201 208 213 190 166 182 211 215 217 223 219 214 218 229 237 237 233 230 226 225 230 230 233
72 72 71 81 91 84 80 90 111 137 148 153 157 160 158 161 165 166 169 172 177 180 167 154 174 233 243 233 229 220 212 216 231 237 236 233 230 228 224 220 223 236
74 70 65 66 67 60 56 57 68 106 124 120 118 126 130 141 150 142 132 128 132 141 142 137 146 187 262 262 254 238 225 227 240 245 244 242 235 232 229 216 209 233
84 78 67 63 66 68 71 67 59 71 93 100 110 123 131 134 130 123 122 121 122 130 125 115 121 119 87 55 351 273 230 226 237 249 251 250 244 239 239 227 209 210
Height
870 871 873 874 874 875 876 877 877 878 878 879 879 880 881 882 882 883 883 884 884 885 885 885 885 886 886 886 886 886 887 887 886 886 886 886 886 886 886 886 886 885
869 870 872 873 874 875 876 876 877 877 878 879 879 880 880 881 882 882 882 883 883 884 884 885 885 885 886 886 886 886 887 886 886 886 886 886 886 886 886 885 885 885
868 869 871 872 873 874 875 876 876 877 877 878 879 880 880 880 881 881 882 882 882 883 883 884 884 885 885 885 886 886 886 886 886 886 886 886 886 885 885 885 885 885
867 868 870 871 871 873 874 875 876 876 877 877 878 879 879 880 880 881 881 881 882 882 882 883 883 884 884 885 885 885 885 886 886 886 886 886 886 885 885 885 885 884
866 867 868 869 870 871 873 873 874 875 876 876 877 878 879 879 880 880 880 881 881 881 881 882 883 883 884 884 884 885 885 885 885 885 885 885 885 885 885 884 884 884
864 865 867 868 869 870 871 872 873 874 875 875 876 877 878 878 879 879 880 880 880 880 880 881 881 882 883 883 884 884 884 884 884 884 885 885 885 884 884 884 884 884
862 864 865 867 868 869 870 871 872 873 874 874 875 876 876 877 878 878 879 879 879 879 880 880 880 881 882 882 882 883 883 883 883 884 884 884 884 884 884 884 884 884
861 862 864 865 866 867 868 870 871 871 872 873 874 875 875 876 876 877 878 878 878 879 879 879 880 880 880 881 881 882 882 882 882 883 883 883 883 883 883 883 883 883
860 861 862 863 864 865 866 867 868 869 871 872 872 873 873 874 875 875 876 877 877 878 878 879 879 879 879 879 880 881 881 881 881 882 882 883 883 883 882 882 882 882
858 860 861 862 862 863 864 865 866 867 868 869 870 871 871 872 873 874 875 875 876 877 877 877 878 878 878 878 878 879 880 880 880 881 881 881 882 882 881 881 881 881
857 858 860 861 862 862 863 864 864 865 866 867 868 869 870 870 872 872 873 874 875 875 875 876 876 877 877 877 877 878 878 878 879 879 880 880 880 880 880 881 880 880
855 856 857 859 860 861 862 862 863 863 864 865 866 868 868 869 870 871 872 872 873 874 874 874 875 876 876 876 876 876 876 877 877 877 878 878 879 879 879 879 879 879
853 854 855 856 857 858 859 860 861 862 862 863 864 865 866 867 868 869 870 871 871 872 872 873 873 874 874 875 875 875 875 876 876 876 876 876 877 877 877 877 877 877
851 853 853 854 855 856 857 858 859 860 860 861 863 864 865 865 866 867 868 869 869 870 871 871 872 872 872 873 873 874 874 874 875 875 875 875 875 875 875 875 875 876
848 851 852 852 852 853 855 856 857 858 859 860 861 862 863 864 864 865 866 867 867 868 869 869 870 870 870 871 871 872 873 873 873 874 874 874 874 874 874 874 874 874
847 848 850 851 851 851 852 854 855 857 857 858 859 860 862 862 863 864 864 865 866 866 867 867 867 868 867 868 870 870 871 872 872 872 872 872 873 872 873 872 872 872
845 846 848 849 849 849 851 852 853 854 855 856 856 858 860 861 862 863 863 863 864 864 865 865 865 865 865 867 868 868 869 870 870 871 871 871 871 871 871 871 871 871
843 844 846 847 848 848 849 850 851 853 854 854 855 856 858 859 860 861 861 862 862 862 863 863 863 863 864 865 866 867 867 868 869 869 869 869 870 870 870 870 870 870
841 842 843 845 846 847 848 849 850 851 852 853 853 854 856 857 858 859 860 861 861 861 862 862 861 861 862 864 864 865 865 866 866 867 867 867 867 868 868 868 868 868
839 840 842 843 844 845 846 847 848 849 849 851 852 853 855 856 857 858 858 859 860 860 861 861 860 860 861 862 862 863 863 863 864 865 865 865 866 866 866 866 867 867
838 839 841 842 843 844 845 846 847 847 847 849 850 852 854 854 855 856 857 858 859 859 860 859 859 859 860 860 860 861 861 862 862 863 863 864 864 864 865 865 865 865
839 840 841 842 843 844 844 845 846 846 847 848 850 852 852 853 854 855 856 857 858 858 859 858 858 858 859 859 859 859 860 861 861 862 862 862 862 863 863 863 864 864
841 842 842 843 844 844 844 844 845 846 847 849 850 851 851 852 854 855 856 857 857 858 858 857 857 858 858 858 858 858 859 860 860 860 861 861 861 861 862 862 862 862
844 844 844 845 845 846 846 846 846 847 848 850 851 851 851 853 854 855 856 857 857 858 857 857 857 858 858 858 857 857 858 859 859 859 859 860 860 860 860 860 860 860
846 847 847 847 847 848 849 850 850 850 850 850 851 852 852 853 855 856 857 857 857 858 857 857 858 858 858 857 857 856 857 857 858 858 858 858 858 858 859 859 859 858
849 850 851 850 850 850 851 852 852 852 852 851 851 853 854 853 854 856 857 857 858 858 858 858 858 858 857 857 856 856 856 856 857 857 857 857 857 857 857 857 857 857